Theta_e
345 345 345 344 343 342 342 344 345 347 346 347 347 344 344 345 343 343 343 344 343 343 343 346 346 345 344 342 341 340 339 339 340 341 340 339 341 340 340 342 343 344 344 345 345 345 345 345 345 344 343 344 345 345 345 344 344 344 344 343 345 344 344 343 342 342 342 341 341 341 341 343 342 341 342 342 341 341 341 340 342 342 341 340 336
344 344 344 343 343 342 343 344 345 347 346 347 348 345 344 345 344 343 343 344 344 343 344 346 346 343 341 340 339 339 339 339 338 339 337 336 338 338 339 342 344 345 345 345 345 345 344 344 344 343 341 343 345 345 345 345 344 344 344 344 345 344 342 342 342 341 341 341 340 340 341 341 341 341 341 341 340 341 341 341 341 341 341 341 338
343 343 343 342 342 342 343 344 345 346 346 347 348 346 345 345 345 345 344 344 344 344 344 345 344 341 341 341 340 339 338 338 336 336 335 333 334 335 337 341 344 345 344 344 345 344 344 343 342 341 340 343 344 344 344 344 344 344 344 345 344 343 342 342 343 342 342 341 341 340 340 340 340 340 341 341 341 340 340 340 341 342 341 341 340
343 343 343 342 342 343 343 344 345 346 346 347 347 347 347 345 345 346 345 345 344 344 344 344 343 343 344 343 343 341 341 340 339 337 336 333 333 333 336 340 343 343 343 344 345 345 344 342 340 340 342 345 344 343 343 344 344 344 344 345 344 343 343 343 344 344 343 342 341 342 341 340 340 341 341 341 342 341 340 340 340 341 341 341 341
343 342 342 342 343 343 344 344 345 346 346 347 347 347 347 347 346 345 346 346 344 344 344 344 345 346 345 345 345 344 343 343 342 340 338 335 334 334 335 338 341 342 344 344 345 346 344 342 341 341 343 345 343 343 343 343 344 344 344 345 345 345 345 344 344 345 344 342 342 343 343 342 342 342 342 341 341 341 340 340 340 339 340 341 341
343 342 341 341 342 343 344 345 345 346 345 346 346 347 347 348 347 345 344 345 345 344 345 345 346 347 347 346 346 345 344 343 342 340 338 335 334 335 335 337 339 342 344 344 345 345 344 343 343 342 343 343 343 343 343 343 344 344 344 345 345 345 345 344 345 346 345 344 345 346 345 344 345 344 343 341 340 340 339 338 339 339 339 340 340
342 343 341 341 342 343 344 345 345 345 345 345 346 346 347 347 347 345 342 343 344 345 345 346 347 348 348 348 347 346 344 343 343 341 338 335 334 335 336 336 338 340 341 342 343 344 344 343 344 343 342 343 342 342 343 343 344 345 345 345 344 345 346 344 344 346 346 346 347 347 347 346 346 345 343 343 342 341 339 337 337 338 338 338 339
342 342 341 340 341 341 343 344 345 345 344 345 346 346 347 347 347 346 345 342 343 344 345 346 346 347 348 348 346 344 343 343 344 344 343 340 336 335 336 336 337 339 340 340 342 344 344 343 344 343 342 342 342 342 343 344 345 345 345 345 344 344 345 344 344 345 346 347 347 347 347 346 346 345 344 344 344 343 340 338 337 337 338 338 338
341 341 341 340 339 339 341 343 344 345 344 345 345 345 345 347 347 347 348 345 342 343 345 345 346 346 347 347 346 345 344 344 344 344 346 346 343 339 337 337 337 338 339 340 341 343 344 344 344 343 342 342 342 343 344 344 345 345 345 345 345 344 344 345 345 345 347 347 347 347 347 346 346 346 345 345 345 344 342 340 339 339 339 339 339
340 341 341 340 339 338 339 342 344 344 344 344 344 344 344 346 347 347 348 347 342 341 344 345 346 346 346 346 346 345 345 345 345 345 346 347 347 343 338 337 338 337 338 339 340 342 343 344 343 344 342 341 343 344 345 345 345 345 345 344 345 344 344 345 345 346 346 347 347 347 347 345 345 345 345 345 345 345 345 343 342 342 342 342 341
339 340 340 340 339 338 339 342 344 344 345 345 344 344 345 345 347 347 348 348 343 340 343 345 345 346 346 346 346 346 346 346 345 346 347 347 349 345 338 337 338 337 338 338 339 342 343 343 343 343 343 342 343 343 345 346 347 347 345 343 344 344 344 344 345 345 346 347 346 346 347 346 345 345 345 345 344 345 345 345 345 345 344 344 344
339 339 339 339 340 340 342 343 344 344 345 346 345 344 345 345 346 347 349 350 345 339 340 343 344 345 346 347 348 349 348 346 345 346 347 348 349 345 338 338 339 338 338 338 338 341 342 342 343 344 344 344 344 344 346 347 348 347 343 341 343 343 343 343 344 345 347 347 346 346 347 346 345 345 345 346 346 345 344 344 345 346 345 345 345
339 338 338 339 341 342 344 344 344 345 345 345 344 344 344 345 345 346 347 348 344 339 338 341 344 345 346 348 349 350 349 347 346 348 348 348 350 345 339 339 339 337 338 337 337 340 341 341 343 344 343 344 345 345 345 346 347 346 342 341 343 343 342 343 344 344 345 346 345 344 345 346 346 345 345 346 346 346 346 345 345 345 345 345 345
340 338 338 339 341 342 343 344 344 345 344 344 344 344 345 345 345 345 345 345 343 339 338 340 344 346 347 348 349 349 349 348 348 349 348 349 349 345 341 340 338 336 337 338 338 339 340 340 341 343 343 343 344 345 343 344 347 346 342 344 346 344 342 342 342 343 342 343 343 343 345 346 346 346 346 346 346 347 347 347 347 346 346 346 346
342 338 339 339 341 341 342 343 344 344 343 344 344 343 345 345 345 344 344 344 343 340 338 338 341 346 348 349 349 350 349 348 348 349 348 348 348 346 344 343 339 336 337 339 340 340 340 340 340 341 343 343 343 344 343 344 346 345 343 345 347 345 343 343 342 341 341 342 343 344 346 348 348 347 347 347 348 348 349 348 348 348 347 347 347
345 340 339 339 340 341 342 343 343 343 343 343 344 344 344 345 345 344 344 343 342 341 339 338 340 343 346 348 349 349 349 349 348 349 349 348 348 347 346 345 343 339 338 340 342 342 340 340 339 340 342 343 344 344 345 345 345 344 343 344 346 347 345 344 344 342 341 342 342 344 346 348 349 349 348 348 349 349 349 349 348 348 348 348 348
348 343 340 340 340 340 341 342 342 343 342 342 343 344 344 345 345 346 345 343 343 342 341 340 340 342 344 346 347 348 348 349 349 349 349 348 348 348 347 346 347 346 343 341 343 344 342 340 340 341 342 343 344 345 346 346 345 344 344 343 345 346 345 343 343 343 342 342 342 343 345 347 348 349 348 348 349 349 349 348 348 349 350 351 350
349 347 343 341 341 340 341 342 342 342 342 343 343 344 345 345 345 346 347 346 344 343 342 342 341 341 343 345 345 346 347 348 349 348 348 348 348 347 347 347 348 348 346 344 345 346 345 343 342 343 344 344 344 345 346 346 344 343 343 342 342 343 343 342 342 342 342 342 342 342 344 347 348 348 348 347 348 350 349 349 349 350 351 352 352
348 349 347 344 341 341 341 341 342 342 343 343 344 345 345 345 346 347 347 347 346 344 343 343 342 340 342 343 343 343 345 347 348 348 348 347 346 346 347 347 346 347 347 346 346 347 348 346 345 346 346 345 345 345 345 345 344 343 343 342 342 342 342 342 342 342 342 342 342 342 343 345 347 348 349 349 350 351 351 351 351 350 351 352 352
346 348 350 348 344 342 342 342 343 343 343 344 344 345 345 345 346 347 348 348 348 347 345 344 343 341 341 343 343 342 343 345 346 347 348 346 345 346 346 345 345 345 346 345 345 347 348 348 347 346 346 346 346 346 346 346 345 344 344 343 343 343 342 342 342 342 342 342 343 343 343 345 347 348 350 351 352 352 352 352 352 351 351 352 352
346 346 349 350 348 345 343 343 343 343 344 345 345 346 346 346 346 347 348 349 349 349 347 345 344 343 342 343 343 342 342 343 345 347 348 346 345 345 345 344 344 344 345 344 344 345 346 347 348 347 347 348 348 348 347 346 345 344 344 343 342 343 343 342 343 343 343 343 342 342 343 345 346 347 349 351 351 351 351 351 352 352 352 352 351
346 345 346 349 351 348 345 344 344 344 344 345 345 346 346 346 346 348 349 349 349 350 349 346 344 344 344 343 342 342 342 343 344 347 347 346 345 346 345 344 343 344 345 345 345 345 345 346 347 347 347 348 348 348 347 346 345 344 344 344 343 343 343 343 344 345 346 345 345 344 343 344 345 346 348 349 348 347 346 347 348 351 352 352 352
349 348 347 348 352 351 347 345 345 345 345 345 346 346 346 347 347 348 349 349 349 350 350 348 344 344 344 343 342 342 342 342 343 344 345 345 345 346 345 345 344 344 346 348 348 347 347 347 348 348 348 348 347 346 346 346 346 346 345 344 343 343 343 343 344 347 348 347 347 346 344 345 347 348 348 347 346 346 346 347 349 351 352 352 353
350 350 350 351 353 353 350 348 347 346 345 345 345 346 347 347 347 348 349 349 350 350 351 348 344 343 344 344 342 342 342 342 341 341 342 343 344 345 346 347 347 347 349 349 349 348 348 348 350 349 349 349 347 346 345 345 346 347 346 345 345 345 344 343 343 345 346 346 344 344 344 346 348 349 349 349 350 350 350 351 352 352 352 352 353
350 351 352 352 352 351 349 348 347 348 348 349 348 348 348 348 348 348 349 349 349 350 351 350 345 343 344 344 342 342 342 342 341 340 340 341 342 344 346 348 348 349 350 351 351 350 349 348 350 350 350 349 348 348 347 346 346 347 348 347 348 348 347 345 344 345 346 346 345 344 345 347 348 349 351 353 353 352 352 352 352 351 351 353 353
349 350 351 350 350 350 350 350 348 347 348 349 351 352 352 352 353 353 352 352 351 350 350 350 347 343 343 344 343 342 342 342 341 340 340 340 342 343 346 348 350 351 351 352 352 351 349 348 348 350 350 349 349 350 349 348 348 348 348 348 348 349 349 348 347 347 347 347 347 347 348 349 349 350 351 353 353 353 352 353 352 351 351 352 351
348 349 349 348 348 348 348 349 349 347 347 348 350 352 353 354 353 352 353 353 353 353 352 351 349 344 342 343 344 344 343 342 341 341 341 341 342 342 344 348 351 353 352 352 352 352 350 349 349 349 349 349 349 350 350 350 350 350 349 349 349 349 349 349 348 347 347 347 348 349 349 350 350 349 349 350 351 352 352 352 352 352 351 351 350
347 349 349 349 348 348 348 348 349 348 348 348 349 350 352 354 354 352 349 350 350 351 352 353 351 348 343 341 343 344 344 343 342 341 341 342 342 342 344 348 351 353 352 351 351 351 351 350 349 350 349 348 348 349 349 350 350 351 351 350 350 350 350 349 348 347 348 349 349 349 348 349 349 349 349 350 351 352 352 352 351 351 351 351 351
347 347 348 348 348 348 348 348 349 349 349 348 348 349 349 351 354 354 352 349 347 348 351 351 350 350 347 343 343 344 344 344 344 344 344 343 342 343 346 350 353 352 352 351 351 351 351 351 350 350 349 349 349 349 349 349 349 349 350 350 349 350 350 350 349 348 349 349 349 350 350 350 351 351 352 352 353 353 353 352 351 351 350 350 350
345 346 346 347 348 348 348 349 349 349 348 348 348 348 348 349 352 354 354 353 349 348 350 349 347 349 349 346 345 346 346 346 345 347 348 346 344 344 347 351 352 351 351 351 350 350 351 351 350 350 350 350 350 350 350 349 348 348 349 349 349 349 350 350 350 350 349 348 349 350 351 351 352 353 353 353 353 352 352 350 350 349 349 349 349
344 345 346 346 347 347 347 348 349 348 348 348 348 349 350 350 350 353 355 354 352 349 349 349 347 347 347 347 347 348 349 350 350 350 351 351 350 348 348 349 349 350 350 350 350 350 350 350 350 350 350 350 350 350 350 350 350 349 349 349 349 350 349 349 350 351 350 350 350 351 351 351 352 353 353 353 353 352 350 349 349 349 348 349 349
344 345 345 345 346 346 347 347 348 349 348 348 349 349 350 351 351 352 353 354 354 351 349 348 347 346 345 347 350 351 350 351 353 353 353 352 353 352 351 350 350 350 351 350 350 350 350 349 350 350 350 350 350 349 349 349 350 350 349 350 350 350 350 349 350 351 351 351 352 352 351 351 351 351 351 351 351 351 350 349 348 348 347 347 347
344 344 345 346 346 346 347 347 347 348 349 348 349 349 349 350 351 352 352 354 355 353 351 351 350 349 349 350 352 353 351 349 351 353 353 352 352 352 352 351 351 351 351 351 350 349 349 348 349 349 350 349 349 349 348 348 349 349 350 350 350 350 350 349 350 351 351 351 352 352 351 349 349 349 349 349 349 349 349 348 348 348 348 347 347
343 344 344 344 345 346 347 347 347 347 348 348 348 349 350 350 350 352 353 354 354 352 352 353 353 353 353 352 351 352 351 349 348 349 352 353 351 351 352 351 350 351 351 350 350 349 349 348 348 349 350 350 350 350 349 348 348 349 350 350 350 350 350 349 350 351 351 351 351 351 349 348 347 347 348 348 348 348 348 348 347 347 347 347 347
342 343 343 343 343 344 344 345 345 345 346 347 347 348 350 350 349 350 351 353 353 352 352 353 353 352 353 352 350 350 349 348 347 347 350 353 352 351 350 350 350 351 351 350 350 349 349 349 349 350 351 351 351 351 350 349 349 349 349 350 350 350 350 350 350 351 352 352 352 351 350 348 347 346 346 346 346 347 347 347 346 345 345 345 345
341 342 342 342 342 342 342 342 342 343 344 345 345 347 348 348 349 350 350 351 351 351 351 351 351 351 352 352 351 351 349 349 348 348 348 350 352 351 350 349 350 351 350 350 349 349 349 349 350 350 350 350 350 350 351 351 350 350 349 349 349 350 350 350 350 351 351 351 352 351 350 348 347 345 344 343 343 344 344 344 345 344 344 344 344
339 339 339 340 340 340 341 341 340 341 342 342 344 345 346 346 347 349 350 349 349 350 349 349 350 351 353 352 351 351 350 349 349 348 347 348 351 351 350 349 350 352 352 351 349 348 348 348 349 350 349 349 349 350 351 351 351 350 350 349 349 350 350 349 349 350 351 351 351 351 350 349 348 347 345 344 343 343 343 343 343 343 343 344 344
337 337 337 337 338 337 338 338 339 339 340 341 342 344 344 345 345 346 347 347 347 348 348 348 349 350 349 349 349 349 349 349 349 349 349 349 350 351 349 348 349 351 352 351 350 349 349 350 350 351 350 350 349 349 350 351 350 350 350 349 349 350 349 349 349 350 351 350 349 349 350 350 349 348 346 345 345 345 344 343 343 343 343 343 342
335 335 335 335 336 335 335 336 337 337 339 340 341 342 343 343 342 343 344 345 345 346 347 347 347 346 345 346 347 347 346 346 346 346 346 347 347 348 348 348 348 349 349 350 350 349 349 350 351 352 352 352 351 350 349 350 350 349 349 349 349 350 350 349 348 349 350 350 349 349 349 350 350 349 348 347 346 346 346 345 344 344 343 341 339
332 332 333 333 334 334 334 334 334 335 336 337 338 340 341 341 341 341 342 343 343 344 345 345 345 345 345 345 345 345 345 345 345 344 344 344 344 345 345 345 346 346 347 347 347 347 347 348 348 349 350 351 351 351 350 350 350 350 350 350 350 350 350 350 350 349 349 348 348 348 348 348 349 349 348 348 347 347 346 347 347 347 346 345 343
330 331 331 331 332 331 332 332 331 331 330 332 335 338 338 339 339 340 340 341 341 341 341 341 341 342 343 343 343 343 344 344 344 344 344 345 345 345 345 345 346 346 346 346 346 347 347 347 348 348 348 349 350 350 350 350 350 351 351 350 350 350 350 350 350 350 350 349 347 347 345 345 347 348 347 347 347 346 346 348 349 348 348 348 347
328 328 328 328 328 329 329 329 329 327 325 326 330 334 336 337 336 336 336 336 338 339 339 339 340 339 339 340 340 341 342 343 343 343 343 343 344 344 345 345 346 346 346 346 346 346 347 347 348 348 349 349 349 349 349 349 350 350 350 349 349 348 348 347 347 348 349 349 347 346 345 346 347 347 348 347 346 345 346 348 349 349 348 348 348
323 322 322 323 323 324 326 327 327 325 322 322 323 326 331 334 334 333 333 334 336 337 337 337 337 337 337 337 338 338 339 340 341 341 342 342 343 343 344 344 345 345 346 345 345 345 345 346 347 348 349 349 349 349 349 348 349 348 348 348 348 347 347 346 346 346 347 347 347 347 346 348 349 349 349 346 343 342 346 348 348 347 347 348 348
317 315 315 315 314 315 317 320 321 320 320 320 320 321 323 325 327 327 328 330 333 335 335 335 335 335 336 335 335 336 337 338 338 339 340 341 342 342 343 344 345 345 345 345 344 344 344 345 345 346 346 346 347 347 347 346 346 346 345 346 346 346 346 347 347 346 346 347 349 349 349 349 350 349 346 342 340 342 345 347 347 346 346 347 347
314 314 314 313 313 312 311 312 313 313 315 317 318 318 318 319 321 322 321 322 326 330 332 333 333 333 334 334 334 334 335 336 337 336 336 337 339 340 341 342 344 345 344 343 343 343 343 343 343 343 343 342 343 343 343 342 343 343 343 343 343 344 345 346 347 348 347 348 350 351 351 350 350 348 344 342 342 344 344 344 343 343 343 344 344
316 317 317 316 316 315 313 312 311 311 312 312 313 315 316 316 318 320 319 319 320 323 325 327 328 330 330 331 332 332 332 334 334 333 333 334 335 336 336 337 339 342 343 342 341 341 341 341 341 340 339 339 338 338 339 339 339 338 339 340 341 342 343 344 345 346 347 348 349 350 350 349 348 347 345 344 342 340 338 338 337 338 339 341 342
317 317 317 317 316 316 315 314 313 313 313 312 312 312 312 313 316 317 317 317 319 320 320 321 323 325 326 327 328 328 327 327 327 328 329 329 330 331 333 333 334 337 340 341 339 338 338 337 337 337 336 335 335 335 335 335 334 334 334 335 336 338 339 340 341 343 346 346 347 348 348 347 345 342 341 339 336 333 333 333 334 335 337 340 342
317 317 318 318 317 316 315 315 314 314 314 314 314 313 311 311 313 314 314 315 316 318 318 320 321 322 324 325 325 324 324 323 322 323 323 323 324 325 327 331 333 334 338 339 337 337 336 334 334 333 332 331 331 330 330 329 329 329 329 329 329 329 329 330 331 335 340 342 342 340 337 334 332 331 332 333 332 333 334 335 336 337 339 341 342
318 318 319 319 318 317 317 315 314 313 312 311 311 312 312 312 312 313 314 314 312 313 316 319 322 323 324 324 323 324 325 325 324 322 320 320 320 319 320 326 330 333 336 337 337 336 335 332 331 331 331 332 332 332 330 329 329 330 329 329 327 324 321 321 321 324 327 330 330 325 320 321 325 328 331 334 336 336 336 337 338 340 341 341 340
317 318 318 319 320 320 319 317 315 314 313 311 309 307 309 311 311 312 313 312 310 311 312 316 320 322 323 323 323 322 323 324 323 321 319 320 320 317 316 318 322 327 332 334 335 335 333 332 332 332 333 334 333 332 331 329 327 326 326 327 327 323 317 313 314 316 318 321 320 316 317 324 329 331 334 337 338 338 336 335 336 337 337 337 336
317 318 319 321 323 323 322 321 319 317 316 316 313 309 307 308 310 311 311 310 310 310 311 313 316 318 320 321 322 322 322 323 323 321 320 321 321 319 318 316 316 318 321 324 327 328 328 328 330 331 332 332 329 328 328 327 322 316 314 315 318 318 314 309 309 311 313 315 314 313 320 331 334 333 336 338 337 336 335 333 333 334 333 333 333
Wind_Speed
32 31 30 28 26 24 23 22 19 18 18 19 18 16 18 20 22 23 22 21 21 22 22 21 19 18 17 17 16 15 15 15 13 11 9 8 12 17 18 16 15 13 11 10 9 7 6 5 4 5 5 6 5 4 5 5 6 7 7 6 3 1 2 2 2 4 8 7 5 5 4 4 5 7 7 6 4 3 4 4 3 3 2 1 2
31 31 31 30 29 27 25 24 22 20 20 20 18 17 18 19 21 23 23 23 22 22 22 21 20 19 18 18 16 15 14 14 13 11 10 9 12 16 17 16 14 13 11 10 9 7 5 5 5 6 6 6 4 4 4 5 7 8 8 6 4 2 2 3 3 4 8 7 4 3 3 3 5 7 8 7 5 5 5 5 5 5 4 2 2
32 32 33 32 31 30 28 26 23 21 21 20 19 17 17 18 20 22 23 24 23 22 22 21 20 19 17 16 16 15 13 11 10 10 10 11 12 15 16 15 14 13 12 10 8 7 6 6 6 6 6 6 5 6 6 6 8 8 8 7 4 3 3 4 3 3 6 7 4 2 2 2 3 5 6 6 7 7 6 5 5 5 4 4 4
34 34 33 33 33 32 30 28 25 23 22 21 21 19 18 17 19 21 23 23 23 23 22 21 20 18 16 15 13 12 11 10 10 11 11 12 13 14 15 15 14 13 11 9 8 7 7 7 6 6 6 5 6 7 7 7 8 9 9 8 5 3 3 3 3 3 5 6 5 2 2 3 3 3 5 6 8 9 9 8 7 6 5 5 5
36 35 33 33 34 34 32 30 27 26 24 22 21 21 19 17 18 20 21 22 23 23 22 22 21 19 17 15 14 13 12 11 13 13 13 14 14 14 14 14 14 13 11 10 8 7 7 7 7 7 7 6 7 8 8 8 8 9 9 8 6 3 3 3 3 3 4 5 4 2 1 2 2 3 4 3 4 6 9 11 10 7 6 7 6
38 36 33 33 35 34 32 31 30 27 25 22 20 20 19 17 17 19 20 21 22 23 23 23 22 21 20 19 19 19 18 16 16 15 15 16 15 14 14 14 14 14 12 10 8 7 8 8 7 8 8 7 8 9 9 9 9 10 10 9 6 4 3 3 3 4 3 3 3 1 1 1 2 2 3 2 1 3 4 7 9 8 8 9 8
38 38 35 34 35 35 34 34 32 29 25 22 20 19 19 17 17 19 20 19 21 23 24 25 24 23 21 20 19 20 19 18 15 14 14 14 15 15 15 15 15 14 13 11 9 8 8 8 8 8 9 8 9 10 10 10 9 10 11 10 8 5 4 2 2 4 3 3 2 1 2 2 2 3 4 4 3 4 3 2 4 7 9 9 9
38 38 36 36 36 35 35 35 33 29 26 23 22 20 19 18 18 19 19 19 21 23 25 26 26 25 23 20 19 19 18 16 14 13 12 12 13 15 16 16 16 16 14 13 11 10 9 9 8 9 9 9 10 10 10 9 9 10 10 10 9 7 5 3 2 4 4 3 3 1 1 2 3 5 6 5 5 5 5 2 1 3 5 6 8
38 39 38 38 37 36 35 35 34 31 27 25 23 20 19 18 18 19 19 19 21 24 25 27 27 26 25 23 20 19 17 15 14 14 13 12 12 14 16 16 16 16 15 14 12 11 11 10 9 9 9 10 10 10 10 9 9 9 10 10 9 8 7 4 3 4 5 4 4 3 1 0 1 4 5 6 5 6 6 4 3 2 2 3 4
38 39 40 40 38 36 35 35 35 33 29 26 24 21 20 20 20 20 20 20 22 25 27 27 27 27 27 25 23 21 19 18 17 15 15 14 13 13 16 16 16 17 16 15 13 12 12 12 10 10 10 10 11 10 10 10 9 9 9 9 9 9 8 6 4 4 5 5 5 5 4 3 2 1 3 4 5 5 5 4 3 3 2 2 1
37 38 40 41 40 38 38 38 37 34 32 29 26 23 22 22 21 21 22 22 23 26 28 27 27 27 27 27 25 23 22 22 21 20 18 17 15 15 17 17 17 17 17 15 14 14 13 12 11 11 11 11 11 10 10 10 10 10 9 9 9 10 10 8 6 6 5 5 5 6 6 5 3 2 2 3 4 5 4 3 3 3 3 2 3
37 37 38 39 40 40 40 40 38 36 34 32 29 25 24 23 22 22 23 24 25 27 28 28 27 27 27 27 25 24 24 24 23 22 20 18 17 16 17 18 17 18 18 16 15 15 14 13 11 12 12 12 11 11 11 10 9 10 9 8 8 9 10 9 9 8 7 6 6 6 7 6 5 3 3 4 5 5 5 5 4 4 5 5 5
36 37 38 39 41 41 41 41 39 37 36 33 30 27 25 24 23 23 25 26 27 27 28 28 28 27 26 26 25 23 23 23 23 22 21 19 18 18 19 18 18 19 18 17 16 15 14 13 12 12 13 12 11 11 12 10 9 9 9 7 8 9 9 9 10 10 10 9 7 7 8 8 7 5 4 5 5 6 6 6 6 6 7 7 7
35 38 39 40 42 43 43 42 40 39 37 34 32 29 27 25 23 24 25 27 28 28 28 29 28 27 26 25 24 24 24 23 23 21 20 19 18 19 20 18 18 19 18 16 16 15 14 13 13 13 12 12 12 12 12 11 10 9 9 8 8 9 9 9 9 10 11 11 10 9 8 8 8 6 5 5 5 5 6 7 7 7 7 7 8
32 37 40 41 44 44 44 43 42 40 37 35 33 31 28 26 23 24 26 28 28 28 29 29 28 27 26 26 25 24 24 23 22 21 19 19 18 19 19 18 17 18 17 14 14 14 13 13 14 14 13 12 12 11 11 11 11 10 9 8 9 9 8 8 9 10 10 10 10 9 9 9 8 7 6 5 5 5 6 7 7 7 8 9 9
28 35 40 42 44 45 44 44 43 40 38 36 35 32 30 27 24 24 27 28 28 28 29 29 28 27 27 27 26 25 25 24 22 21 20 19 18 18 18 17 16 16 16 14 13 13 13 13 14 14 13 12 11 11 11 11 11 10 10 9 9 9 8 8 8 9 10 10 10 9 9 9 8 8 7 7 7 6 6 6 7 7 9 10 11
26 30 38 42 43 45 46 45 44 42 39 38 36 33 31 28 25 25 26 27 27 28 28 29 28 27 27 27 27 26 25 24 23 21 21 20 19 18 18 17 16 15 15 15 13 13 13 14 14 14 14 13 12 11 11 11 11 10 10 10 10 10 9 9 9 9 10 10 10 10 10 10 10 9 9 8 8 7 7 7 7 6 7 9 11
27 27 34 41 43 45 46 46 45 43 41 39 36 34 31 28 25 24 25 26 26 26 27 28 28 28 28 28 27 27 26 25 23 22 21 21 21 20 18 18 17 16 16 15 14 14 14 14 14 14 14 13 12 12 11 11 11 11 10 10 10 10 10 10 9 9 9 10 10 10 10 11 10 10 10 9 9 8 8 7 7 6 6 7 9
32 27 28 35 42 44 46 47 45 44 41 38 36 34 32 30 27 25 25 25 25 25 26 27 28 29 29 28 27 27 26 25 25 23 22 23 22 21 19 19 18 17 17 17 16 16 15 15 15 14 14 14 13 12 12 12 12 11 11 10 9 10 11 10 9 9 9 10 10 10 11 12 11 11 11 10 9 9 9 8 7 7 6 6 7
37 33 26 28 37 43 44 45 45 44 42 39 37 35 33 31 29 27 26 25 25 25 26 27 28 29 29 28 28 27 26 25 25 24 24 24 23 22 20 19 18 18 18 18 18 17 16 15 15 14 14 14 13 12 12 13 13 12 11 10 10 11 11 10 10 10 10 10 10 11 12 12 12 12 12 11 10 10 11 10 9 9 8 7 7
38 38 30 24 29 38 43 43 44 44 43 40 38 36 34 33 32 30 27 27 27 26 26 27 28 29 29 29 28 27 26 26 25 25 25 24 24 22 21 19 19 19 19 19 19 18 17 16 15 15 14 13 13 13 13 13 13 12 11 11 11 11 11 10 10 10 10 10 10 11 11 12 13 13 12 13 12 12 13 12 12 11 9 9 8
36 39 36 28 25 30 38 42 42 43 44 43 40 38 36 35 34 32 30 29 29 28 27 27 28 29 29 29 28 27 27 26 26 26 25 25 24 23 21 21 20 20 20 19 18 18 17 17 16 15 14 14 14 14 13 13 13 12 12 12 12 12 11 10 9 9 9 9 9 9 10 11 13 13 12 12 11 10 11 12 11 11 10 8 8
26 30 33 31 27 27 34 40 42 43 44 43 42 39 38 37 35 34 33 31 30 28 26 27 29 30 30 30 29 28 27 27 27 26 25 25 25 23 22 22 22 21 19 19 18 18 17 17 16 16 15 14 15 15 14 14 13 13 12 12 12 12 11 10 9 8 8 8 8 8 9 10 11 12 10 9 9 9 9 9 10 10 9 8 8
19 23 25 26 23 20 24 31 37 41 45 45 45 42 39 38 37 36 34 32 30 29 27 27 29 29 29 30 30 29 28 27 27 26 26 25 24 23 22 22 21 20 19 18 17 17 17 17 16 16 15 15 15 15 15 15 14 13 12 12 12 12 11 11 10 9 9 9 8 8 9 9 10 10 8 8 9 9 9 8 8 9 9 8 8
5 12 19 24 23 17 13 13 16 23 31 35 39 42 41 40 40 39 36 33 31 29 27 27 28 30 30 30 30 30 29 28 27 26 26 25 24 23 22 21 20 19 18 17 17 18 18 18 17 16 16 15 15 15 15 14 14 14 13 12 12 12 12 11 10 9 9 9 10 9 9 9 10 10 8 7 8 9 9 9 8 8 8 7 8
4 3 6 13 20 24 24 19 13 13 20 24 27 32 36 38 39 37 34 34 33 31 28 27 27 30 30 30 30 31 30 29 28 27 26 26 25 25 23 21 20 18 17 16 16 17 18 18 17 17 16 16 15 15 15 14 14 14 14 13 12 12 12 12 11 10 9 10 11 10 9 9 11 10 9 9 8 8 9 9 9 8 7 7 8
7 4 4 4 8 16 26 29 25 21 25 29 31 31 34 37 40 37 33 32 33 32 32 29 28 30 31 30 30 30 30 29 29 29 28 27 26 26 25 22 20 18 18 17 17 17 17 16 16 16 17 16 16 16 16 15 14 14 14 14 13 13 13 13 13 11 11 11 11 11 10 10 10 10 10 9 8 7 8 9 10 9 9 9 9
8 8 9 8 5 6 13 22 26 26 27 31 35 37 37 37 40 41 39 35 32 34 35 32 30 31 32 30 29 28 28 28 28 28 29 28 28 27 26 24 22 21 19 18 17 17 16 14 14 14 16 17 16 16 16 16 16 15 15 15 14 14 14 14 14 13 12 12 11 11 11 10 10 10 10 9 8 8 8 8 9 10 11 11 12
3 4 6 6 4 4 8 14 20 24 27 31 35 39 40 39 39 39 40 39 36 34 34 31 29 31 32 31 29 27 26 26 26 26 27 28 28 28 27 25 24 22 21 19 17 17 16 14 13 13 13 15 16 17 17 17 17 16 16 16 16 16 16 15 14 14 14 14 12 12 11 11 10 10 10 10 9 10 10 10 10 10 11 12 13
3 2 4 4 3 3 5 10 16 22 26 29 33 37 41 42 41 38 38 38 36 33 32 31 28 28 30 30 28 27 26 26 25 24 24 25 26 27 28 28 26 24 22 21 19 18 18 17 15 13 13 14 15 16 16 17 17 17 17 17 18 18 18 17 16 15 16 15 14 13 12 11 11 10 10 11 11 11 11 11 11 11 12 13 14
6 4 3 3 4 5 6 7 13 20 24 27 29 32 35 38 40 38 35 34 35 33 32 30 27 26 27 28 27 26 26 27 27 25 23 22 23 25 27 27 26 24 23 22 21 21 21 20 18 17 15 15 16 16 16 17 17 18 18 19 19 19 19 19 18 17 16 15 15 14 13 12 12 12 12 12 12 11 11 11 11 12 12 13 14
9 7 4 3 2 3 5 6 9 17 23 26 27 28 29 32 35 35 34 34 36 34 31 28 26 25 27 28 28 27 26 27 29 29 27 26 26 27 28 29 28 26 24 23 23 23 22 22 21 20 18 18 18 17 18 19 19 19 19 20 20 20 21 21 20 19 17 16 15 15 14 13 13 14 14 14 13 12 12 12 12 12 13 13 14
9 8 7 5 4 3 3 2 4 11 19 24 26 27 27 29 32 34 34 36 37 34 31 30 28 28 29 29 30 30 28 27 28 30 29 29 29 28 29 30 28 26 24 23 23 23 23 22 22 22 21 20 20 19 19 19 20 20 20 19 19 20 21 22 22 20 18 17 16 15 14 14 15 16 16 15 14 13 12 12 12 12 12 13 14
9 8 8 6 5 4 2 2 2 3 11 16 20 23 23 24 28 31 33 36 36 33 30 30 30 30 30 30 29 30 29 27 28 28 27 27 27 26 27 27 26 26 25 24 23 22 22 23 24 24 24 23 22 21 20 20 20 20 20 20 20 20 21 22 23 22 20 17 16 16 16 16 16 16 16 15 14 13 13 12 11 11 11 12 13
10 10 9 8 7 6 3 2 3 1 4 10 15 19 21 22 24 25 26 29 31 29 27 27 27 26 27 28 28 28 28 26 27 29 26 22 22 23 23 23 23 24 25 25 24 23 22 23 25 26 26 26 24 24 23 22 21 21 21 22 22 21 21 22 23 23 21 19 18 18 18 18 17 16 15 15 15 14 14 14 14 14 14 14 14
11 10 9 9 8 8 8 6 5 4 4 5 8 12 15 17 19 19 20 22 24 25 25 26 26 25 25 26 27 28 28 27 28 30 29 24 21 21 21 22 23 23 23 24 24 24 23 23 25 26 27 27 27 26 25 24 23 23 23 24 24 24 24 23 24 24 23 22 21 21 20 20 18 18 17 16 16 17 17 18 17 17 17 16 15
10 10 10 11 10 10 11 9 9 9 8 7 6 7 9 10 13 15 16 18 19 21 23 24 24 25 25 24 24 24 25 25 26 27 27 26 25 23 22 23 24 24 24 26 26 25 25 24 25 26 27 28 28 28 27 26 26 26 27 27 27 27 26 25 25 26 25 24 24 23 23 22 20 19 19 19 18 18 19 19 20 19 19 18 17
11 12 12 12 12 12 13 12 12 13 12 10 6 4 6 9 12 13 13 12 13 15 18 19 19 20 20 19 20 21 20 20 21 22 23 25 26 25 23 24 25 26 27 28 28 28 27 27 27 28 29 29 29 29 29 29 29 28 28 29 29 29 28 27 27 27 27 26 25 24 24 24 23 22 21 21 21 20 19 19 20 20 21 21 20
9 10 10 10 10 11 13 14 14 15 14 11 9 5 5 8 10 10 10 9 9 11 14 15 16 17 17 17 18 21 21 20 20 21 23 26 27 27 26 26 28 29 28 27 28 28 29 29 30 30 30 31 32 31 31 31 30 29 29 29 29 29 29 29 28 28 29 27 25 25 26 26 25 25 25 24 24 22 21 20 20 20 20 21 20
8 8 8 8 8 9 12 13 14 14 13 11 9 7 6 8 8 7 7 7 7 7 7 8 9 11 15 17 19 20 22 22 22 22 23 26 28 28 27 27 27 27 27 26 27 29 30 30 30 31 30 31 33 33 32 32 32 31 31 30 30 30 31 30 30 30 29 28 28 28 28 28 29 29 28 27 25 23 22 21 20 19 19 18 18
8 8 8 7 7 8 10 11 12 12 10 9 7 7 8 10 10 10 10 9 8 7 6 5 6 6 6 9 10 13 16 18 19 20 21 22 24 24 25 25 25 25 26 26 26 28 29 30 30 30 30 31 32 33 34 35 35 35 34 33 33 33 32 32 31 31 31 30 30 30 29 30 32 31 29 27 25 23 22 20 19 18 17 17 16
7 6 6 6 6 7 8 9 10 10 9 7 5 5 8 9 10 12 12 10 7 6 5 5 6 5 4 3 2 4 7 9 11 13 14 14 14 15 17 19 19 20 22 23 23 24 25 26 27 27 27 27 29 30 32 34 36 37 37 36 36 37 36 34 33 33 31 30 30 30 29 31 32 30 28 25 23 22 21 19 17 17 16 16 16
5 5 4 4 4 5 6 7 7 8 8 7 6 6 6 6 8 11 10 8 6 5 3 4 4 3 3 3 3 2 1 3 5 7 9 10 10 10 12 13 13 14 16 16 16 17 18 21 23 25 26 26 25 25 27 29 30 31 32 32 34 36 36 35 35 36 36 34 31 31 31 32 31 27 24 22 22 22 20 17 16 15 14 14 15
4 5 5 5 5 5 5 5 5 6 7 7 6 7 7 7 9 9 7 5 5 3 2 2 2 2 2 2 2 3 2 1 2 2 3 5 6 8 9 10 11 12 12 11 11 12 13 15 17 19 20 19 18 19 20 21 23 24 25 26 27 28 29 30 31 34 37 36 34 33 32 31 28 24 22 21 21 20 18 16 15 14 14 14 15
7 8 8 9 9 8 7 6 6 6 6 6 5 5 5 7 8 7 5 4 3 2 2 1 1 1 1 1 1 1 2 2 3 4 4 4 3 4 5 7 9 11 11 9 8 10 10 9 9 9 8 7 8 10 12 13 15 17 20 21 22 23 26 27 28 32 35 35 34 33 31 28 25 22 20 20 20 18 17 15 14 14 15 15 14
8 8 8 8 8 8 8 7 7 7 6 6 5 4 4 4 5 5 3 3 3 1 1 1 1 1 1 1 1 2 2 3 3 4 5 6 6 5 5 5 3 6 9 8 7 8 7 6 5 4 3 2 2 3 4 5 6 8 10 11 12 14 16 19 22 27 30 30 30 30 27 24 21 18 17 17 17 16 15 14 13 14 14 14 12
7 7 7 7 7 7 6 6 6 6 6 6 6 5 4 2 2 2 1 1 1 1 2 2 3 3 3 3 3 4 5 6 6 6 6 6 6 7 7 8 8 2 5 7 7 7 6 6 6 5 5 4 4 3 2 1 1 1 2 4 5 5 5 4 6 12 17 19 22 22 19 16 15 14 14 15 15 14 13 12 12 12 13 13 12
5 6 6 7 8 8 8 8 7 6 6 6 6 5 3 2 1 1 2 2 2 2 3 3 3 4 4 4 5 6 7 8 9 9 8 7 6 5 5 6 8 7 2 5 6 5 5 7 8 8 8 7 6 4 3 2 2 2 3 4 5 6 5 4 3 2 5 8 10 11 11 12 13 14 14 15 15 14 12 11 12 13 14 14 13
3 4 5 7 8 9 9 10 10 9 8 8 8 7 6 4 3 3 3 3 3 4 5 5 5 4 4 4 5 6 6 8 9 10 9 7 4 3 3 4 6 7 5 3 4 5 7 9 9 8 8 6 4 3 2 1 2 3 4 4 6 7 6 5 5 4 4 5 6 7 8 11 13 15 16 16 15 15 13 13 13 14 14 14 13
3 4 5 7 7 8 9 9 10 10 10 10 10 10 9 8 7 6 5 5 5 5 6 7 7 6 6 5 5 5 6 7 7 7 8 8 5 3 3 3 4 5 5 3 2 3 5 6 5 4 3 1 0 1 3 5 7 9 8 8 8 9 8 7 6 6 6 8 8 9 10 12 14 16 16 16 16 16 15 15 15 15 15 14 13
6 7 7 7 8 8 9 9 9 9 10 11 11 10 10 9 9 8 8 7 6 6 6 8 8 8 8 7 5 5 5 5 5 5 6 7 7 6 5 4 4 4 4 2 1 1 2 2 3 4 4 5 7 8 9 10 12 13 12 10 10 10 10 9 8 7 8 9 10 10 12 14 15 16 16 15 15 15 16 16 16 16 15 13 11
Wind_Direction
203 202 203 204 205 204 199 195 193 190 186 182 182 183 181 177 176 177 177 178 177 175 174 173 173 172 170 169 171 175 180 186 191 192 190 182 178 182 183 183 180 177 176 175 178 181 178 180 195 206 199 185 182 187 194 196 198 202 201 201 199 195 188 170 180 198 189 189 197 207 224 237 252 262 261 264 258 241 239 237 242 244 238 214 128
203 201 202 203 204 204 200 197 194 190 188 187 187 184 182 180 178 177 178 180 181 179 179 179 179 175 170 167 168 173 180 186 191 191 189 184 183 187 189 188 184 184 187 185 186 188 182 190 209 209 199 190 188 190 194 191 191 197 201 206 209 207 189 158 140 168 185 192 204 227 246 231 237 251 254 259 259 252 249 236 234 231 203 183 185
201 198 199 201 203 203 200 198 197 194 193 191 190 185 184 185 182 181 182 182 183 182 181 181 179 174 168 163 162 166 170 175 183 185 184 187 186 188 192 192 190 193 197 194 192 189 187 197 205 203 197 194 188 185 188 185 189 199 203 206 205 189 167 157 158 178 193 204 216 248 276 270 248 241 251 267 268 267 265 252 241 231 205 197 209
195 194 196 198 200 202 200 199 199 196 195 194 192 190 189 191 190 188 186 184 185 184 181 179 178 176 172 168 166 167 165 162 172 181 186 190 189 189 192 193 195 200 204 205 201 196 197 200 198 193 191 190 186 182 182 183 189 198 202 204 199 179 164 162 174 200 209 209 216 246 263 276 281 267 276 270 259 264 266 264 258 241 227 228 226
190 191 195 195 197 200 200 201 200 197 199 198 196 195 194 197 196 195 193 189 186 185 180 176 179 183 183 184 187 188 185 181 181 185 190 192 193 194 194 194 199 205 208 209 209 208 206 202 195 190 188 187 186 183 182 185 190 193 200 208 200 173 160 158 162 184 207 212 220 248 244 272 299 300 310 284 248 268 268 263 258 248 240 240 241
191 193 195 195 195 198 201 202 202 200 202 203 202 200 199 200 199 197 198 194 188 186 181 178 181 188 192 195 200 200 197 193 188 188 192 194 196 199 200 200 202 207 209 208 211 214 209 203 196 191 190 189 188 188 188 190 195 197 205 212 201 177 160 149 161 176 184 196 197 165 77 356 319 320 352 27 47 334 293 263 255 253 251 248 246
193 194 197 196 195 197 200 202 204 204 204 206 205 204 203 203 200 196 199 198 193 189 184 181 184 191 197 201 205 205 201 198 191 189 193 195 199 202 204 205 205 207 208 206 208 211 209 205 198 193 192 193 193 193 193 195 202 205 208 209 198 183 177 166 190 197 191 190 175 109 67 43 19 10 20 38 44 16 357 282 252 257 257 255 252
195 196 198 197 196 198 201 203 206 206 205 205 205 207 207 207 204 200 200 201 197 193 189 186 186 191 198 203 208 208 205 203 196 191 195 198 201 206 208 208 207 209 209 209 210 211 210 205 200 197 196 196 196 196 200 202 206 205 205 207 198 191 195 201 218 214 210 207 187 151 83 53 38 34 40 49 57 44 33 32 312 284 276 267 262
198 198 199 199 199 201 204 205 206 206 206 205 205 208 210 211 211 207 206 206 201 197 194 191 190 192 196 202 207 209 210 211 206 200 202 205 207 210 211 211 212 213 213 212 212 211 209 202 199 202 203 202 197 198 207 211 210 206 207 210 206 202 207 214 228 226 227 227 214 207 208 165 48 44 48 51 57 58 51 50 47 18 334 287 272
200 200 200 202 203 205 206 205 204 204 206 206 206 208 210 213 215 213 212 211 207 201 198 195 194 195 197 201 206 209 211 215 216 212 210 214 220 217 213 213 215 217 216 213 211 212 209 201 198 203 207 208 205 208 215 217 215 211 212 217 216 216 215 215 224 234 239 245 240 242 253 255 257 355 35 40 41 45 50 51 51 46 38 26 352
201 201 202 203 204 205 205 203 202 204 204 204 206 209 211 214 216 215 215 215 211 206 202 199 197 197 198 200 205 210 213 216 219 218 216 218 225 222 214 213 216 218 217 214 211 211 210 205 202 204 209 210 212 219 219 216 216 214 215 218 220 222 220 218 222 228 238 250 256 261 267 274 279 299 341 7 14 15 13 8 9 6 357 352 355
203 202 202 201 200 200 200 200 202 202 202 204 207 210 212 214 216 215 216 216 214 209 206 204 202 200 199 202 207 210 214 217 217 219 219 220 225 222 213 211 214 215 215 214 210 208 207 206 205 208 212 212 215 218 215 213 218 217 214 215 220 222 221 222 224 225 231 241 259 270 268 272 278 296 325 337 346 351 347 337 329 324 323 320 320
204 202 201 200 198 198 198 199 201 202 203 205 208 211 212 214 216 215 215 215 214 212 210 209 207 204 202 205 209 212 215 216 217 219 220 221 224 218 211 211 213 213 214 214 209 204 205 205 207 212 215 217 218 219 218 219 224 221 216 218 225 225 223 225 227 229 233 238 252 268 268 263 261 271 302 318 326 333 332 326 317 313 315 316 312
201 201 199 199 199 199 199 200 202 203 205 207 209 211 212 213 215 215 215 214 214 214 213 213 211 208 208 210 212 214 215 216 218 221 220 221 222 217 213 213 214 215 217 215 208 204 206 208 210 216 219 219 218 220 222 223 226 225 220 223 232 230 224 224 229 232 237 242 249 256 258 255 252 254 271 291 304 311 312 312 313 312 312 313 313
198 199 198 200 201 201 201 202 204 206 207 208 210 211 212 213 215 214 214 214 215 215 214 215 214 211 212 215 216 217 217 217 220 223 223 222 220 218 216 216 217 218 217 213 208 206 210 212 215 218 220 219 218 218 222 225 229 229 225 228 234 232 226 227 233 235 238 243 247 246 246 248 250 253 259 269 279 285 292 298 306 311 313 315 315
195 197 198 200 201 202 203 204 206 208 209 210 210 212 212 213 215 214 213 214 216 217 216 217 215 214 216 217 218 219 219 219 221 224 225 225 224 222 219 218 219 221 219 212 208 210 213 216 218 218 217 218 219 221 225 227 229 228 227 232 234 232 230 234 238 237 238 242 244 245 244 245 251 256 258 259 263 270 277 287 301 314 322 324 323
194 198 199 200 200 202 205 205 207 208 209 211 212 213 214 214 215 214 213 215 216 218 218 217 215 215 217 219 220 220 219 219 221 224 226 227 229 227 225 223 223 226 224 218 215 216 216 218 221 220 218 219 220 223 228 230 230 230 230 235 236 235 236 240 242 241 241 242 242 244 246 245 248 255 259 256 256 265 272 283 298 311 324 329 328
198 201 201 201 201 202 205 207 209 210 211 212 213 215 215 216 217 217 215 215 216 217 219 218 216 215 217 219 221 221 220 220 221 224 226 226 227 227 226 225 225 226 226 223 222 221 219 220 221 222 222 223 224 227 231 233 236 237 236 238 239 242 245 246 248 246 244 242 240 242 246 246 247 252 257 255 255 262 270 283 292 296 309 320 322
203 205 203 203 203 203 206 208 210 210 212 213 214 215 215 216 219 220 220 219 218 218 219 219 217 217 218 219 221 222 222 222 223 224 224 223 223 223 222 223 224 224 225 226 225 223 222 221 221 223 224 224 226 231 234 236 238 239 240 242 243 246 249 249 251 249 245 245 243 243 245 246 249 253 256 256 257 263 270 278 284 287 293 301 309
206 209 208 207 207 206 207 209 211 211 212 214 215 216 216 217 218 220 221 221 221 221 220 220 220 219 219 220 220 222 222 223 223 223 222 220 219 219 219 220 222 224 225 225 225 226 226 226 227 227 225 225 227 230 234 237 238 238 240 240 241 244 247 247 248 247 246 247 248 246 244 245 249 253 256 256 258 263 268 271 275 279 281 283 296
206 211 211 212 213 210 208 210 212 213 212 214 216 217 218 218 218 219 220 221 222 223 222 221 221 221 221 221 220 221 222 223 223 223 222 220 218 218 219 220 222 224 226 226 226 228 229 231 233 231 229 229 229 230 235 239 240 240 240 239 239 243 247 247 246 247 247 247 248 247 244 245 251 256 259 259 259 263 265 265 268 270 272 276 286
207 212 215 217 218 215 211 209 210 211 212 213 216 218 219 219 220 219 220 221 222 223 223 222 222 222 221 221 221 221 221 223 224 224 224 222 220 220 220 220 221 223 225 226 227 228 230 232 233 233 233 233 233 233 235 237 239 239 239 239 240 242 246 247 247 249 247 246 249 249 245 244 250 258 264 261 255 255 257 258 258 260 266 274 287
210 214 219 223 224 221 216 212 211 211 211 213 215 217 220 221 221 220 220 222 223 224 226 224 222 222 222 221 221 221 222 224 225 225 224 223 222 223 223 222 222 223 224 226 228 229 229 231 232 233 233 233 234 234 232 233 234 234 235 237 239 242 243 242 243 242 240 241 249 255 253 248 250 258 263 252 241 241 245 250 251 254 265 277 290
212 217 221 224 222 221 218 214 212 212 212 214 215 217 220 222 221 220 221 222 222 224 226 226 223 222 221 221 221 221 222 224 226 225 225 224 223 225 226 225 224 224 225 228 231 231 231 232 235 235 233 232 233 232 231 231 231 230 231 232 235 240 241 240 240 239 240 241 244 250 253 251 250 252 251 237 233 238 242 247 253 259 270 282 292
217 227 229 229 228 230 228 221 217 214 211 212 213 216 218 220 221 221 222 223 223 223 225 226 225 222 221 221 221 221 223 224 226 225 225 226 227 228 228 228 229 229 230 233 235 235 235 236 238 237 235 234 234 234 233 232 233 231 228 228 231 237 240 241 240 239 240 241 243 246 245 245 244 243 240 237 240 247 251 254 259 264 270 279 289
358 353 261 246 242 242 241 240 241 231 221 215 211 212 214 215 214 214 216 217 218 221 224 225 226 223 221 221 221 222 223 224 226 226 226 227 228 230 229 228 229 231 234 237 237 237 237 238 240 241 240 240 239 239 238 237 237 233 229 229 230 234 239 241 240 237 236 237 242 245 241 239 241 242 243 244 248 256 264 266 262 257 257 265 277
256 258 248 255 261 254 247 243 242 237 228 222 218 216 217 217 215 212 214 214 213 216 219 221 224 224 222 222 222 223 224 225 227 228 228 227 228 230 229 227 228 232 237 239 238 236 235 237 241 244 245 245 244 244 244 241 239 236 235 234 234 237 239 239 239 238 236 237 240 242 242 243 246 250 249 246 245 250 262 266 261 254 254 262 272
239 242 235 228 234 245 242 241 242 240 235 229 223 219 220 224 223 220 220 219 217 218 218 217 220 224 223 223 223 224 225 226 228 230 230 230 229 229 230 229 230 233 237 238 236 234 234 236 241 246 247 247 246 247 246 244 242 241 241 240 240 242 242 240 239 239 238 237 238 240 244 246 250 252 249 243 240 243 250 255 256 258 263 267 272
218 245 249 241 237 222 216 224 231 233 232 228 223 220 222 227 228 225 222 219 218 220 220 219 221 223 224 224 224 226 227 227 228 229 231 231 231 231 231 231 233 236 237 237 236 236 237 238 242 246 246 245 245 245 246 246 247 246 245 245 244 244 244 243 243 243 242 239 238 241 244 245 247 248 246 245 244 247 252 252 254 260 266 270 272
64 321 288 284 316 309 258 238 231 227 225 223 221 220 221 224 227 227 223 219 218 218 219 221 222 222 223 224 223 225 228 229 226 226 228 230 231 231 230 231 234 235 235 236 239 241 243 244 246 248 247 246 245 244 244 246 248 250 250 249 248 247 246 246 247 248 248 245 242 242 242 243 246 246 247 250 251 252 253 251 251 256 262 268 272
62 42 353 317 319 326 313 277 245 232 226 222 220 219 220 221 223 225 224 222 222 220 217 219 220 217 218 221 220 220 225 228 228 226 225 226 228 230 232 233 234 233 232 235 240 245 250 251 251 249 249 249 248 247 246 247 248 250 251 250 251 251 250 250 250 250 251 251 249 246 246 245 245 245 247 248 250 251 252 253 256 260 265 271 273
72 78 76 68 25 345 336 308 258 241 235 230 225 222 222 222 222 223 224 223 222 219 216 215 213 210 211 213 217 220 222 227 232 232 228 225 223 225 228 231 231 231 235 240 244 247 252 254 253 251 250 250 250 249 249 249 250 250 250 249 250 252 253 252 251 250 248 250 250 248 246 243 239 238 240 242 245 248 252 257 262 267 271 273 273
79 86 96 98 81 64 42 2 256 238 237 236 233 229 228 229 228 225 222 219 216 215 215 214 211 210 210 212 218 225 225 228 235 237 232 228 226 226 229 230 231 232 236 243 247 248 248 248 248 247 247 249 251 252 252 251 250 249 248 248 250 253 254 253 251 249 246 244 243 240 236 234 234 235 237 240 244 247 251 255 259 265 268 268 269
89 88 85 78 67 72 85 61 54 211 214 214 220 225 225 223 218 213 210 208 208 211 216 218 215 213 214 216 222 228 230 231 237 242 239 234 231 233 235 235 234 235 235 236 239 242 244 245 245 244 245 249 251 253 255 254 251 249 247 248 251 254 256 254 250 246 241 236 235 232 230 231 233 237 241 245 248 249 250 252 258 266 269 268 269
93 94 92 86 72 61 54 26 26 49 178 178 189 204 209 204 197 192 192 197 203 210 215 217 218 218 218 220 223 227 229 230 234 238 239 238 234 232 233 234 233 234 236 235 235 236 237 240 243 244 244 247 249 251 254 256 256 254 253 253 255 255 257 256 251 244 238 234 233 232 233 234 236 242 248 252 253 254 254 256 262 271 275 275 276
96 99 98 93 81 71 68 63 58 66 95 124 146 171 186 193 194 191 192 197 204 212 214 213 217 221 221 219 220 224 225 226 228 230 234 242 244 237 233 236 236 234 236 238 239 241 241 240 241 243 245 247 248 249 252 255 259 260 260 259 259 258 259 258 252 244 239 236 236 236 237 237 241 248 254 258 260 262 263 265 269 273 276 277 277
96 92 85 77 72 69 70 64 64 74 78 76 100 141 164 179 186 188 193 198 203 209 213 215 218 222 221 218 216 219 222 223 224 228 234 243 248 244 239 240 244 244 243 244 246 249 250 247 244 244 247 249 250 251 251 251 254 258 260 260 260 259 260 258 251 244 241 240 240 240 240 241 246 252 257 261 265 268 271 271 271 272 273 274 275
92 85 78 74 67 61 58 55 57 65 68 65 73 116 155 167 174 180 185 189 196 204 213 219 223 226 228 226 224 227 231 230 230 233 240 244 246 247 246 244 247 251 251 251 253 254 253 252 249 248 250 252 252 251 249 248 249 251 254 255 256 256 256 254 248 243 242 243 246 248 248 247 248 252 256 259 264 271 276 275 273 272 271 270 273
91 80 70 66 62 60 60 57 54 54 55 52 52 66 117 140 155 173 182 187 199 210 217 224 230 236 239 239 238 240 244 244 241 242 246 249 249 249 248 246 247 251 252 254 255 255 255 254 253 253 254 253 250 247 245 246 247 247 248 249 249 249 249 248 245 242 242 245 249 253 253 251 249 250 253 257 261 268 274 276 275 274 272 271 271
83 73 66 64 65 69 71 70 64 56 49 43 37 43 74 94 109 134 148 153 167 180 192 208 219 226 232 236 240 245 249 250 248 248 251 253 254 253 252 252 252 255 257 257 258 258 259 258 257 258 257 254 253 251 249 247 246 246 246 245 244 244 244 244 244 242 242 245 249 250 251 251 251 250 252 256 259 265 272 275 274 272 272 271 270
85 79 75 73 72 72 74 77 76 66 55 45 38 51 79 93 102 109 111 114 125 131 134 139 139 153 195 220 230 243 253 255 254 255 257 257 256 257 258 259 258 259 261 261 261 260 259 259 259 259 257 255 254 254 253 250 247 246 245 245 245 246 245 245 247 248 244 242 244 248 250 250 249 249 252 255 259 266 274 275 270 266 264 264 265
97 89 78 67 64 68 71 76 78 70 61 55 50 69 91 101 100 97 95 96 102 113 127 129 123 126 136 132 153 219 249 259 256 255 254 252 253 256 258 259 259 259 260 260 259 257 256 256 255 255 255 254 252 252 252 252 250 248 249 251 254 255 254 253 254 256 253 246 243 247 249 247 246 246 248 251 260 271 274 271 265 261 257 255 256
103 88 66 47 48 61 68 71 71 67 61 56 58 76 96 105 98 93 92 94 95 96 105 111 109 108 105 89 87 108 222 260 258 254 251 249 250 253 254 255 256 258 257 256 256 255 254 254 252 250 249 249 249 250 252 254 256 257 258 259 261 262 261 257 254 254 255 252 245 241 241 240 239 240 244 252 262 270 269 263 259 255 251 248 249
90 68 53 45 45 54 67 71 67 65 63 59 63 78 94 102 100 98 99 105 110 118 117 106 101 94 86 83 73 67 60 43 28 356 299 272 262 256 252 250 251 255 256 254 249 246 245 244 245 246 244 242 243 248 253 257 261 263 263 264 264 265 266 263 255 251 249 244 233 227 227 228 230 236 245 253 259 262 260 258 254 249 242 240 242
86 75 65 59 54 50 52 56 57 61 63 60 63 71 84 98 102 106 111 106 112 144 167 125 100 107 114 103 38 16 356 360 19 21 17 6 336 301 275 260 250 245 244 241 231 228 227 227 231 239 241 234 232 243 254 261 266 267 267 269 270 270 269 264 256 252 250 241 228 220 220 221 225 235 243 247 251 253 253 252 248 242 236 234 235
84 76 67 61 55 48 46 47 50 55 55 53 55 50 54 88 105 112 109 90 86 111 219 267 296 326 319 324 338 331 319 317 321 337 355 4 1 358 360 359 323 243 231 223 206 200 200 198 197 197 196 175 172 213 254 268 272 274 274 275 279 278 271 257 242 237 239 235 226 222 220 216 217 224 230 236 242 244 242 240 236 232 227 223 222
78 68 58 53 48 45 43 39 37 39 37 38 43 39 34 58 101 111 76 25 26 9 315 281 280 298 307 315 323 318 313 311 310 317 327 333 344 355 5 19 26 8 224 206 189 185 186 176 161 148 132 117 112 113 101 59 347 322 306 297 306 309 298 273 228 217 218 216 214 215 212 204 204 210 217 225 228 226 224 223 216 211 207 205 205
76 64 50 41 36 34 33 29 23 16 12 8 10 10 3 345 321 292 294 311 315 312 302 282 274 287 294 309 325 327 328 329 328 328 324 316 320 338 351 14 33 43 88 177 184 184 173 155 141 134 129 119 114 117 108 87 63 27 6 343 337 336 327 325 324 240 205 202 204 202 192 189 196 203 208 210 207 203 204 203 198 195 195 196 200
51 46 29 24 23 21 22 23 20 14 6 354 344 337 325 311 306 294 286 297 303 302 296 282 275 279 284 299 318 324 332 340 344 348 348 338 321 328 358 25 44 58 81 137 176 170 157 149 139 131 131 126 116 112 92 23 344 336 325 311 314 318 309 293 278 254 223 209 208 202 194 193 195 197 198 197 194 192 191 188 188 191 193 195 198
311 341 352 4 14 14 12 14 13 12 8 1 351 342 329 315 305 298 293 292 292 294 294 284 276 277 280 290 307 318 326 335 346 360 10 13 11 15 39 55 63 76 91 109 132 136 146 154 151 141 141 154 328 346 338 328 326 323 313 300 297 299 297 285 264 244 225 212 210 208 202 197 195 195 196 194 193 193 191 186 184 187 191 196 199
296 311 326 349 11 15 8 5 2 357 356 355 352 350 344 332 317 308 304 298 288 283 287 287 284 282 281 283 289 302 314 324 337 354 9 21 28 32 43 61 76 90 102 118 217 261 268 264 263 272 280 284 288 295 300 308 318 321 313 301 292 288 287 282 269 250 232 219 214 208 201 196 196 198 198 196 194 194 194 192 190 188 190 195 202